サイディング・スプリング彗星

162P/Siding Spring (2004)

English version
Home page
Updated on May 5, 2012

---------------------------------------------------------------------

・ プロフィール

符号 162P/2004 TU12
発見日 2004年10月10日
発見光度 14.1等
発見者 Siding Spring Survey

・ 写真集

・ 軌道要素

Epoch 2004 Nov. 11.0 TT = JDT 2453320.5
T 2004 Nov. 10.28305 TT                                 MPC
q   1.2276348            (2000.0)            P               Q
n   0.18516730     Peri.  356.36222     +0.88227241     -0.40357585
a   3.0485491      Node    31.25259     +0.44282638     +0.53691517
e   0.5973052      Incl.   27.84485     +0.15968781     +0.74084319
P   5.32
From 1411 observations 1990 Mar. 23-2012 Apr. 21, mean residual 0".4.

・ 星図

・ 光度変化

        H = 13.7  G = 0.15

---------------------------------------------------------------------

軌道要素はM.P.E.C. 2012-J16に掲載されたものです。
星図は StellaNavigator Ver.2.0 for Windows (アストロアーツ編著 / アスキー出版局刊) で作成したものです。
光度グラフはComet for Windowsで作成したものです。

---------------------------------------------------------------------

Copyright(C) Seiichi Yoshida (comet@aerith.net). All rights reserved.